Philadelphia, PA

8:23 PM EST on November 15, 2019 (GMT -0500)
Philadelphia International

Weather History for KPHL - May, 2019

Change the Weather History Date:

Monday, May 27, 2019

  Actual Average Record
Temperature  
Mean Temperature 75 °F 67 °F  
Max Temperature 83 °F 77 °F 95 °F (1991)
Min Temperature 67 °F 58 °F 42 °F (1961)
Degree Days  
Heating Degree Days 0 2  
Month to date heating degree days 74 105  
Since 1 July heating degree days 4359 4595  
Cooling Degree Days 10 4  
Month to date cooling degree days 81 59  
Year to date cooling degree days 105 72  
Growing Degree Days 25 (Base 50)    
Moisture  
Dew Point 55 °F    
Average Humidity 56    
Maximum Humidity 78    
Minimum Humidity 34    
Precipitation  
Precipitation 0.00 in 0.12 in 3.16 in (1918)
Month to date precipitation 4.58 3.21  
Year to date precipitation 18.64 16.24  
Snow  
Snow 0.00 in 0.00 in 0.00 in ()
Month to date snowfall 0.0 0.0  
Since 1 July snowfall 17.1 22.4  
Snow Depth 0.00 in    
Sea Level Pressure  
Sea Level Pressure 29.92 in    
Wind  
Wind Speed 8 mph (NW)    
Max Wind Speed 18 mph    
Max Gust Speed 23 mph    
Visibility 10 miles    
Events      
T = Trace of Precipitation, MM = Missing Value Source: NWS Daily Summary

Daily Weather History Graph

Daily Weather History Graph

Search for Another Location

Airport or City:

Astronomy

May. 27, 2019 Rise Set
Actual Time 5:37 AM EDT 8:19 PM EDT
Civil Twilight 5:05 AM EDT 8:51 PM EDT
Nautical Twilight 4:26 AM EDT 9:30 PM EDT
Astronomical Twilight 3:41 AM EDT 10:15 PM EDT
Moon 2:19 AM EDT (5/27) 1:30 PM EDT (5/27)
Length of Visible Light 15h 45m
Length of Day
14h 42m
Last Quarter, 41% of the Moon is Illuminated
May 27
Last Quarter
Jun 3
New
Jun 10
First Quarter
Jun 17
Full
Jun 25
Last Quarter

Hourly Weather History & Observations

Time (EDT) Temp. Dew Point Humidity Pressure Visibility Wind Dir Wind Speed Gust Speed Precip Events Conditions
12:54 AM 72.0 °F 62.1 °F 71% 29.91 in 10.0 mi West 5.8 mph - N/A   Mostly Cloudy
1:54 AM 73.0 °F 62.1 °F 68% 29.89 in 10.0 mi WNW 4.6 mph - N/A   Overcast
2:54 AM 71.1 °F 62.1 °F 73% 29.90 in 10.0 mi NW 5.8 mph - N/A   Mostly Cloudy
3:54 AM 70.0 °F 63.0 °F 78% 29.91 in 10.0 mi North 6.9 mph - N/A   Mostly Cloudy
4:54 AM 70.0 °F 61.0 °F 73% 29.91 in 10.0 mi North 4.6 mph - N/A   Mostly Cloudy
5:54 AM 68.0 °F 60.1 °F 76% 29.93 in 10.0 mi North 6.9 mph - N/A   Scattered Clouds
6:54 AM 69.1 °F 60.1 °F 73% 29.94 in 10.0 mi Variable 6.9 mph - N/A   Scattered Clouds
7:54 AM 70.0 °F 55.0 °F 59% 29.96 in 10.0 mi North 12.7 mph - N/A   Scattered Clouds
8:54 AM 72.0 °F 54.0 °F 53% 29.97 in 10.0 mi North 10.4 mph - N/A   Scattered Clouds
9:54 AM 75.0 °F 54.0 °F 48% 29.97 in 10.0 mi NNE 8.1 mph - N/A   Scattered Clouds
10:54 AM 77.0 °F 54.0 °F 45% 29.96 in 10.0 mi North 6.9 mph - N/A   Scattered Clouds
11:54 AM 79.0 °F 54.0 °F 42% 29.94 in 10.0 mi North 10.4 mph - N/A   Partly Cloudy
12:54 PM 80.1 °F 52.0 °F 38% 29.94 in 10.0 mi NNW 13.8 mph 19.6 mph N/A   Partly Cloudy
1:54 PM 81.0 °F 51.1 °F 35% 29.93 in 10.0 mi WNW 10.4 mph 23.0 mph N/A   Partly Cloudy
2:54 PM 81.0 °F 52.0 °F 36% 29.92 in 10.0 mi NW 10.4 mph - N/A   Scattered Clouds
3:54 PM 82.0 °F 52.0 °F 35% 29.90 in 10.0 mi West 8.1 mph - N/A   Scattered Clouds
4:54 PM 81.0 °F 50.0 °F 34% 29.89 in 10.0 mi WNW 8.1 mph - N/A   Scattered Clouds
5:54 PM 82.0 °F 52.0 °F 35% 29.90 in 10.0 mi NNE 4.6 mph - N/A   Scattered Clouds
6:54 PM 81.0 °F 50.0 °F 34% 29.90 in 10.0 mi WNW 8.1 mph - N/A   Scattered Clouds
7:54 PM 80.1 °F 50.0 °F 35% 29.90 in 10.0 mi West 10.4 mph - N/A   Mostly Cloudy
8:54 PM 79.0 °F 50.0 °F 36% 29.92 in 10.0 mi WNW 8.1 mph - N/A   Mostly Cloudy
9:54 PM 78.1 °F 50.0 °F 37% 29.93 in 10.0 mi WNW 9.2 mph - N/A   Mostly Cloudy
10:54 PM 70.0 °F 55.9 °F 61% 29.93 in 10.0 mi South 9.2 mph - N/A   Mostly Cloudy
11:54 PM 66.9 °F 57.0 °F 70% 29.92 in 10.0 mi Calm Calm - N/A   Mostly Cloudy